EW1587 Weather Reports


Display with metric or nautical units.
time (UTC)temp
F
wind
direction
speed
MPH
gust
MPH
rain 1hr
in
rain 24hr
in
rain mn
in
humidity
%
barometer
mb
20260904011052 80 174 0.0 4.0 0.00 0.00 0.00 77 1006.3
20260904010552 80 187 0.0 5.0 0.00 0.00 0.00 77 1006.3
20260904010052 80 162 2.0 5.0 0.00 0.00 0.00 76 1006.3
20260904005553 81 174 0.0 4.0 0.00 0.00 0.00 75 1006.3
20260904005051 81 186 1.0 6.0 0.00 0.00 0.00 74 1006.3
20260904004551 82 184 1.0 6.0 0.00 0.00 0.00 73 1006.3
20260904004053 82 238 2.0 5.0 0.00 0.00 0.00 72 1006.3
20260904003552 82 224 1.0 4.0 0.00 0.00 0.00 71 1006.3
20260904003050 83 248 0.0 8.0 0.00 0.00 0.00 70 1006.2
20260904002553 83 244 1.0 8.0 0.00 0.00 0.00 69 1006.2
20260904002051 84 143 0.0 7.0 0.00 0.00 0.00 69 1006.2
20260904001550 84 170 1.0 6.0 0.00 0.00 0.00 69 1006.2
20260904001050 84 215 0.0 8.0 0.00 0.00 0.00 69 1006.2
20260904000553 84 240 2.0 10.0 0.00 0.00 0.00 69 1006.3
20260904000051 83 223 3.0 10.0 0.00 0.00 0.00 70 1006.3
20260903235553 83 283 2.0 8.0 0.00 0.00 0.00 70 1006.4
20260903235049 83 222 1.0 5.0 0.00 0.00 0.00 70 1006.4
20260903234550 83 252 1.0 4.0 0.00 0.00 0.00 70 1006.5
20260903234050 84 141 0.0 3.0 0.00 0.00 0.00 70 1006.5
20260903233550 84 193 0.0 3.0 0.00 0.00 0.00 70 1006.6
20260903233050 84 225 0.0 3.0 0.00 0.00 0.00 69 1006.6
20260903232550 84 248 0.0 3.0 0.00 0.00 0.00 68 1006.6
20260903232052 84 214 1.0 5.0 0.00 0.00 0.00 67 1006.5
20260903231555 85 248 0.0 8.0 0.00 0.00 0.00 67 1006.4
20260903231048 84 264 3.0 8.0 0.00 0.00 0.00 67 1006.3
20260903230548 85 179 2.0 7.0 0.00 0.00 0.00 68 1006.2
20260903230051 85 170 1.0 9.0 0.00 0.00 0.00 68 1006.0
20260903225548 85 195 2.0 9.0 0.00 0.00 0.00 68 1005.9
20260903225049 85 252 1.0 8.0 0.00 0.00 0.00 69 1005.6
20260903224548 85 174 1.0 8.0 0.00 0.00 0.00 69 1005.6
20260903224048 85 210 1.0 9.0 0.00 0.00 0.00 68 1005.6
20260903223548 85 257 2.0 9.0 0.00 0.00 0.00 68 1005.6
20260903223048 85 198 2.0 12.0 0.00 0.00 0.00 67 1005.4
20260903222550 86 167 4.0 13.0 0.00 0.00 0.00 66 1005.5
20260903222047 86 166 6.0 12.0 0.00 0.00 0.00 66 1005.2
20260903221546 85 193 3.0 11.0 0.00 0.00 0.00 68 1005.5
20260903221044 85 78 1.0 11.0 0.00 0.00 0.00 69 1005.6
20260903220544 84 244 2.0 13.0 0.00 0.00 0.00 69 1005.8
20260903220048 84 200 4.0 13.0 0.00 0.00 0.00 68 1005.9
20260903215545 85 159 3.0 14.0 0.00 0.00 0.00 68 1005.8
20260903215043 84 277 2.0 14.0 0.00 0.00 0.00 68 1006.0
20260903214545 84 225 2.0 9.0 0.00 0.00 0.00 69 1006.0
20260903214042 84 185 4.0 11.0 0.00 0.00 0.00 69 1005.9
20260903213542 84 160 4.0 11.0 0.00 0.00 0.00 69 1006.0
20260903213042 84 195 3.0 14.0 0.00 0.00 0.00 68 1006.1
20260903212541 84 290 3.0 14.0 0.00 0.00 0.00 67 1006.0
20260903212041 85 181 1.0 6.0 0.00 0.00 0.00 67 1006.1
20260903211541 85 267 2.0 6.0 0.00 0.00 0.00 66 1006.1
20260903211041 86 264 1.0 7.0 0.00 0.00 0.00 67 1006.1
20260903210541 86 248 3.0 10.0 0.00 0.00 0.00 65 1006.2
20260903210044 86 270 5.0 12.0 0.00 0.00 0.00 66 1006.0
20260903205541 86 231 3.0 13.0 0.00 0.00 0.00 68 1006.0
20260903205040 85 245 5.0 13.0 0.00 0.00 0.00 67 1006.0
20260903204540 84 315 3.0 14.0 0.00 0.00 0.00 69 1006.2
20260903204043 84 267 6.0 14.0 0.00 0.00 0.00 69 1006.1
20260903203540 84 260 5.0 11.0 0.00 0.00 0.00 69 1006.1
20260903203039 84 264 4.0 12.0 0.00 0.00 0.00 67 1006.1
20260903202541 84 282 4.0 13.0 0.00 0.00 0.00 67 1006.1
20260903202039 84 222 5.0 13.0 0.00 0.00 0.00 67 1006.1
20260903201539 84 243 2.0 12.0 0.00 0.00 0.00 68 1006.2
20260903201041 84 200 4.0 12.0 0.00 0.00 0.00 67 1006.3
20260903200538 85 85 5.0 12.0 0.00 0.00 0.00 66 1006.1
20260903200037 85 160 5.0 11.0 0.00 0.00 0.00 65 1006.2
20260903195539 86 60 3.0 9.0 0.00 0.00 0.00 64 1006.3
20260903195036 86 226 3.0 8.0 0.00 0.00 0.00 65 1006.3
20260903194534 86 290 2.0 13.0 0.00 0.00 0.00 65 1006.4
20260903194036 86 190 6.0 13.0 0.00 0.00 0.00 64 1006.6
20260903193533 86 211 4.0 13.0 0.00 0.00 0.00 65 1006.7
20260903193032 86 148 6.0 12.0 0.00 0.00 0.00 64 1006.9
20260903192532 85 303 2.0 11.0 0.00 0.00 0.00 66 1006.7
20260903192035 84 176 4.0 11.0 0.00 0.00 0.00 66 1006.6
20260903191546 84 197 4.0 10.0 0.00 0.00 0.00 66 1006.8
20260903191033 83 204 1.0 9.0 0.00 0.00 0.00 67 1006.8
20260903190531 83 255 2.0 9.0 0.00 0.00 0.00 67 1007.0
20260903190031 83 261 3.0 9.0 0.00 0.00 0.00 67 1007.0
20260903185530 83 284 2.0 12.0 0.00 0.00 0.00 67 1006.9
20260903185033 83 269 4.0 12.0 0.00 0.00 0.00 67 1007.0
20260903184541 84 222 2.0 7.0 0.00 0.00 0.00 66 1007.0
20260903184032 84 219 3.0 8.0 0.00 0.00 0.00 65 1007.2
20260903183528 84 255 2.0 10.0 0.00 0.00 0.00 65 1007.4
20260903183028 85 267 4.0 11.0 0.00 0.00 0.00 64 1007.5
20260903182529 85 307 3.0 13.0 0.00 0.00 0.00 64 1007.5
20260903182027 85 260 5.0 13.0 0.00 0.00 0.00 62 1007.5
20260903181527 86 212 5.0 11.0 0.00 0.00 0.00 61 1007.5
20260903181027 86 188 5.0 15.0 0.00 0.00 0.00 62 1007.5
20260903180527 86 217 4.0 9.0 0.00 0.00 0.00 65 1007.3
20260903180032 85 284 2.0 9.0 0.00 0.00 0.00 65 1007.4
20260903175524 85 153 1.0 7.0 0.00 0.00 0.00 66 1007.5
20260903175023 84 214 2.0 8.0 0.00 0.00 0.00 66 1007.5
20260903174522 84 252 2.0 8.0 0.00 0.00 0.00 66 1007.7
20260903174022 84 186 4.0 11.0 0.00 0.00 0.00 66 1007.8
20260903173521 83 156 2.0 11.0 0.00 0.00 0.00 68 1007.8
20260903173022 83 160 4.0 12.0 0.00 0.00 0.00 67 1007.9
20260903172522 82 245 3.0 8.0 0.00 0.00 0.00 67 1007.9
20260903172020 82 231 4.0 8.0 0.00 0.00 0.00 66 1008.0
20260903171521 83 181 2.0 8.0 0.00 0.00 0.00 66 1008.0
20260903171019 83 134 2.0 14.0 0.00 0.00 0.00 65 1007.9
20260903170519 84 236 5.0 14.0 0.00 0.00 0.00 62 1008.0
20260903170020 84 200 2.0 10.0 0.00 0.00 0.00 63 1008.1
20260903165518 84 263 3.0 10.0 0.00 0.00 0.00 62 1008.2
20260903165019 85 211 1.0 10.0 0.00 0.00 0.00 61 1008.1
20260903164517 85 239 2.0 9.0 0.00 0.00 0.00 62 1008.2
20260903164017 85 191 3.0 9.0 0.00 0.00 0.00 62 1008.2
20260903163516 85 184 1.0 9.0 0.00 0.00 0.00 61 1008.3
20260903163016 85 236 2.0 7.0 0.00 0.00 0.00 61 1008.3
20260903162515 84 243 3.0 7.0 0.00 0.00 0.00 63 1008.3
20260903162013 84 193 2.0 11.0 0.00 0.00 0.00 63 1008.2
20260903161512 83 252 2.0 11.0 0.00 0.00 0.00 64 1008.3
20260903161011 83 240 2.0 10.0 0.00 0.00 0.00 66 1008.3
20260903160510 83 246 1.0 8.0 0.00 0.00 0.00 69 1008.3
20260903160013 82 92 2.0 8.0 0.00 0.00 0.00 70 1008.4
20260903155510 82 163 1.0 8.0 0.00 0.00 0.00 71 1008.5
20260903155006 81 176 1.0 11.0 0.00 0.00 0.00 72 1008.5
20260903154506 81 187 4.0 11.0 0.00 0.00 0.00 70 1008.4
20260903154004 81 235 1.0 10.0 0.00 0.00 0.00 73 1008.4
20260903153502 80 232 3.0 10.0 0.00 0.00 0.00 73 1008.5
20260903153101 80 97 4.0 7.0 0.00 0.00 0.00 74 1008.5
20260903152600 80 143 2.0 7.0 0.00 0.00 0.00 75 1008.4
20260903152102 79 194 2.0 6.0 0.00 0.00 0.00 76 1008.4
20260903151558 79 136 1.0 9.0 0.00 0.00 0.00 78 1008.5
20260903151056 79 311 4.0 9.0 0.00 0.00 0.00 77 1008.4
20260903150556 79 231 3.0 7.0 0.00 0.00 0.00 79 1008.4
20260903150055 79 100 2.0 7.0 0.00 0.00 0.00 80 1008.5
20260903145554 78 75 2.0 7.0 0.00 0.00 0.00 81 1008.5
20260903145053 77 174 0.0 6.0 0.00 0.00 0.00 84 1008.4
20260903144552 76 117 2.0 7.0 0.00 0.00 0.00 84 1008.3
20260903144052 76 87 2.0 7.0 0.00 0.00 0.00 85 1008.4
20260903143548 75 111 3.0 7.0 0.00 0.00 0.00 85 1008.5
20260903143105 75 81 2.0 6.0 0.00 0.00 0.00 86 1008.4
20260903142546 75 124 2.0 7.0 0.00 0.00 0.00 87 1008.4
20260903142045 74 113 4.0 7.0 0.00 0.00 0.00 87 1008.5
20260903141544 74 89 0.0 7.0 0.00 0.00 0.00 89 1008.7
20260903141045 73 97 2.0 7.0 0.00 0.00 0.00 90 1008.7
20260903140541 73 103 2.0 5.0 0.00 0.00 0.00 91 1008.7
20260903140039 72 75 1.0 5.0 0.00 0.00 0.00 92 1008.8
20260903135539 72 91 2.0 5.0 0.00 0.00 0.00 92 1008.9
20260903135038 72 89 2.0 5.0 0.00 0.00 0.00 92 1009.0
20260903134537 71 90 1.0 5.0 0.00 0.00 0.00 92 1009.0
20260903134038 71 117 3.0 5.0 0.00 0.00 0.00 92 1009.1
20260903133537 71 97 2.0 4.0 0.00 0.00 0.00 92 1009.3
20260903133036 71 86 2.0 4.0 0.00 0.00 0.00 93 1009.2
20260903132535 71 103 1.0 4.0 0.00 0.00 0.00 94 1009.1
20260903132035 70 88 2.0 4.0 0.00 0.00 0.00 93 1008.9
20260903131538 70 94 2.0 4.0 0.00 0.00 0.00 94 1008.9
20260903131036 70 94 2.0 4.0 0.00 0.00 0.00 96 1008.9
20260903130538 69 79 2.0 4.0 0.00 0.00 0.00 96 1008.8
20260903130035 69 89 2.0 4.0 0.00 0.00 0.00 97 1008.8
20260903125535 68 81 1.0 6.0 0.00 0.00 0.00 97 1008.7
20260903125034 68 81 2.0 5.0 0.00 0.00 0.00 97 1008.8
20260903124539 68 96 3.0 8.0 0.00 0.00 0.00 97 1009.0
20260903124034 68 96 3.0 8.0 0.00 0.00 0.00 97 1009.0
20260903123535 67 85 2.0 5.0 0.00 0.00 0.00 97 1008.9
20260903123039 67 100 1.0 4.0 0.00 0.00 0.00 97 1008.9
20260903122534 67 65 2.0 4.0 0.00 0.00 0.00 97 1008.8
20260903122034 67 65 1.0 4.0 0.00 0.00 0.00 97 1008.8
20260903121535 67 91 1.0 5.0 0.00 0.00 0.00 97 1008.7
20260903121034 67 81 2.0 5.0 0.00 0.00 0.00 97 1008.8
20260903120536 67 101 2.0 4.0 0.00 0.00 0.00 97 1008.8
20260903120035 67 92 2.0 4.0 0.00 0.00 0.00 96 1008.8
20260903115534 67 86 2.0 5.0 0.00 0.00 0.00 96 1008.9
20260903115035 67 79 2.0 6.0 0.00 0.00 0.00 96 1008.8
20260903114533 67 82 1.0 6.0 0.00 0.00 0.00 96 1008.8
20260903114034 67 86 2.0 5.0 0.00 0.00 0.00 96 1009.0
20260903113532 67 91 2.0 5.0 0.00 0.00 0.00 96 1008.8
20260903113040 67 97 2.0 5.0 0.00 0.00 0.00 97 1008.7
20260903112531 67 92 1.0 5.0 0.00 0.00 0.00 96 1008.6
20260903112030 67 107 2.0 4.0 0.00 0.00 0.00 96 1008.6
20260903111530 67 95 2.0 4.0 0.00 0.00 0.00 96 1008.6
20260903111032 67 84 1.0 3.0 0.00 0.00 0.00 96 1008.6
20260903110529 67 91 2.0 3.0 0.00 0.00 0.00 96 1008.7
20260903110032 67 74 1.0 4.0 0.00 0.00 0.00 96 1008.8
20260903105529 67 90 2.0 4.0 0.00 0.00 0.00 96 1008.8
20260903105029 67 101 2.0 4.0 0.00 0.00 0.00 96 1008.9
20260903104529 67 96 2.0 4.0 0.00 0.00 0.00 96 1009.0
20260903104028 67 77 1.0 4.0 0.00 0.00 0.00 96 1008.9
20260903103528 67 71 1.0 4.0 0.00 0.00 0.00 96 1009.0
20260903103028 67 98 1.0 3.0 0.00 0.00 0.00 96 1008.9
20260903102528 67 65 0.0 2.0 0.00 0.00 0.00 95 1008.9
20260903102031 68 81 0.0 2.0 0.00 0.00 0.00 95 1008.8
20260903101527 68 103 0.0 2.0 0.00 0.00 0.00 95 1008.8
20260903101031 68 92 0.0 1.0 0.00 0.00 0.00 94 1008.7
20260903100527 68 77 0.0 3.0 0.00 0.00 0.00 94 1008.7
20260903100027 68 94 1.0 3.0 0.00 0.00 0.00 95 1008.8
20260903095528 68 84 0.0 3.0 0.00 0.00 0.00 95 1008.7
20260903095027 68 77 0.0 2.0 0.00 0.00 0.00 95 1008.7
20260903094526 67 82 0.0 2.0 0.00 0.00 0.00 95 1008.6
20260903094026 67 77 0.0 1.0 0.00 0.00 0.00 94 1008.6
20260903093525 68 83 0.0 1.0 0.00 0.00 0.00 93 1008.7
20260903093041 68 86 0.0 4.0 0.00 0.00 0.00 93 1008.7
20260903092523 68 92 0.0 5.0 0.00 0.00 0.00 93 1008.6
20260903092145 68 97 2.0 5.0 0.00 0.00 0.00 93 1008.6
20260903091019 68 101 2.0 3.0 0.00 0.00 0.00 93 1008.7
20260903090519 68 90 1.0 3.0 0.00 0.00 0.00 93 1008.8
20260903090018 68 87 0.0 4.0 0.00 0.00 0.00 92 1008.7
20260903085518 68 101 2.0 4.0 0.00 0.00 0.00 92 1008.7
20260903085018 68 88 1.0 3.0 0.00 0.00 0.00 92 1008.7
20260903084523 68 86 0.0 2.0 0.00 0.00 0.00 92 1008.8
20260903084017 68 81 0.0 4.0 0.00 0.00 0.00 92 1008.7
20260903083516 68 84 2.0 4.0 0.00 0.00 0.00 92 1008.8
20260903083015 68 96 2.0 4.0 0.00 0.00 0.00 93 1008.9
20260903082515 68 108 1.0 3.0 0.00 0.00 0.00 92 1008.9
20260903082015 68 84 1.0 3.0 0.00 0.00 0.00 92 1009.1
20260903081515 68 77 1.0 2.0 0.00 0.00 0.00 92 1009.0
20260903081014 68 94 0.0 2.0 0.00 0.00 0.00 91 1008.9
20260903080513 68 84 0.0 3.0 0.00 0.00 0.00 90 1009.0
20260903080135 68 91 1.0 3.0 0.00 0.00 0.00 90 1009.0
20260903075514 68 98 1.0 4.0 0.00 0.00 0.00 89 1009.0
20260903075013 68 113 1.0 4.0 0.00 0.00 0.00 90 1009.1
20260903074512 68 91 1.0 3.0 0.00 0.00 0.00 89 1009.0
20260903074011 69 95 0.0 3.0 0.00 0.00 0.00 88 1009.1
20260903073511 69 82 2.0 3.0 0.00 0.00 0.00 89 1009.2
20260903073011 69 117 1.0 2.0 0.00 0.00 0.00 89 1009.4
20260903072510 69 93 0.0 2.0 0.00 0.00 0.00 88 1009.3
20260903072010 69 85 0.0 3.0 0.00 0.00 0.00 88 1009.3
20260903071510 69 96 1.0 4.0 0.00 0.00 0.00 88 1009.3
20260903071009 69 101 2.0 4.0 0.00 0.00 0.00 88 1009.3
20260903070508 69 86 0.0 3.0 0.00 0.00 0.00 87 1009.4
20260903070007 69 99 1.0 3.0 0.00 0.00 0.00 87 1009.4
20260903065507 69 109 0.0 2.0 0.00 0.00 0.00 87 1009.5
20260903065006 69 84 0.0 3.0 0.00 0.00 0.00 86 1009.5
20260903064504 69 73 0.0 3.0 0.00 0.00 0.00 86 1009.6
20260903064007 69 86 1.0 3.0 0.00 0.00 0.00 85 1009.6
20260903063503 70 107 1.0 3.0 0.00 0.00 0.00 84 1009.5
20260903063002 70 101 1.0 4.0 0.00 0.00 0.00 84 1009.5
20260903062502 70 47 0.0 4.0 0.00 0.00 0.00 83 1009.5
20260903062101 70 105 2.0 4.0 0.00 0.00 0.00 83 1009.6
20260903061607 70 105 1.0 3.0 0.00 0.00 0.00 83 1009.6
20260903061059 70 105 2.0 4.0 0.00 0.00 0.00 83 1009.7
20260903060559 70 98 2.0 4.0 0.00 0.00 0.00 83 1009.7
20260903060059 70 96 2.0 4.0 0.00 0.00 0.00 82 1009.7
20260903055559 70 75 2.0 4.0 0.00 0.00 0.00 82 1009.7
20260903055058 70 65 2.0 4.0 0.00 0.00 0.00 83 1009.7
20260903054558 70 97 1.0 4.0 0.00 0.00 0.00 83 1009.7
20260903054059 71 65 2.0 4.0 0.00 0.00 0.00 83 1009.8
20260903053559 71 84 2.0 4.0 0.00 0.00 0.00 82 1009.8
20260903053055 71 79 1.0 3.0 0.00 0.00 0.00 82 1009.8
20260903052555 72 91 1.0 4.0 0.00 0.00 0.00 81 1009.7
20260903052055 72 101 2.0 4.0 0.00 0.00 0.00 81 1009.7
20260903051553 72 89 0.0 3.0 0.00 0.00 0.00 81 1009.8
20260903051051 72 81 1.0 4.0 0.00 0.00 0.00 81 1009.9
20260903050555 72 79 0.0 4.0 0.00 0.00 0.00 81 1010.0
20260903050050 72 67 1.0 4.0 0.00 0.00 0.00 81 1009.9
20260903045549 72 89 2.0 4.0 0.00 0.00 0.00 80 1010.0
20260903045048 72 111 1.0 4.0 0.00 0.00 0.00 81 1009.9
20260903044548 72 60 0.0 4.0 0.00 0.00 0.00 81 1010.0
20260903044048 72 73 0.0 4.0 0.00 0.00 0.00 80 1010.0
20260903043549 72 82 1.0 3.0 0.00 0.00 0.00 81 1010.0
20260903043048 72 79 0.0 3.0 0.00 0.00 0.00 81 1010.0
20260903042550 71 75 0.0 2.0 0.00 0.00 0.00 82 1010.0
20260903042051 71 47 0.0 2.0 0.00 0.00 0.00 82 1010.1
20260903041548 71 86 0.0 2.0 0.00 0.00 0.00 83 1010.2
20260903041049 71 90 0.0 2.0 0.00 0.00 0.00 83 1010.2
20260903040550 71 82 0.0 3.0 0.00 0.00 0.00 83 1010.2
20260903040048 71 77 1.0 3.0 0.00 0.00 0.00 83 1010.2
20260903035546 71 78 2.0 4.0 0.00 0.00 0.00 83 1010.2
20260903035049 71 82 0.0 2.0 0.00 0.00 0.00 82 1010.1
20260903034555 71 56 0.0 2.0 0.00 0.00 0.00 82 1010.2
20260903034046 71 77 0.0 2.0 0.00 0.00 0.00 82 1010.2
20260903033548 72 82 1.0 2.0 0.00 0.00 0.00 81 1010.2
20260903033046 72 82 0.0 2.0 0.00 0.00 0.00 80 1010.2
20260903032547 72 86 0.0 2.0 0.00 0.00 0.00 79 1010.2
20260903032043 73 97 0.0 4.0 0.00 0.00 0.00 78 1010.2
20260903031547 73 90 0.0 4.0 0.00 0.00 0.00 77 1010.1
20260903031044 73 94 1.0 3.0 0.00 0.00 0.00 77 1010.2
20260903030546 73 98 1.0 3.0 0.00 0.00 0.00 77 1010.1
20260903030043 73 85 0.0 3.0 0.00 0.00 0.00 76 1010.2
20260903025543 73 78 1.0 4.0 0.00 0.00 0.00 77 1010.3
20260903025044 73 79 1.0 3.0 0.00 0.00 0.00 78 1010.3
20260903024541 73 85 0.0 2.0 0.00 0.00 0.00 78 1010.2
20260903024041 73 82 0.0 2.0 0.00 0.00 0.00 77 1010.2
20260903023545 73 81 0.0 2.0 0.00 0.00 0.00 77 1010.2
20260903023040 74 72 0.0 3.0 0.00 0.00 0.00 76 1010.1
20260903022539 74 97 1.0 3.0 0.00 0.00 0.00 76 1010.1
20260903022041 74 86 0.0 2.0 0.00 0.00 0.00 75 1010.2
20260903021538 74 92 0.0 1.0 0.00 0.00 0.00 75 1010.1
20260903021038 75 97 0.0 2.0 0.00 0.00 0.00 74 1010.1
20260903020540 75 91 0.0 3.0 0.00 0.00 0.00 74 1010.1
20260903020050 74 93 1.0 3.0 0.00 0.00 0.00 74 1010.0
20260903015639 74 96 0.0 2.0 0.00 0.00 0.00 76 1010.0
20260903015040 74 85 0.0 1.0 0.00 0.00 0.00 77 1010.0
20260903014536 74 78 0.0 1.0 0.00 0.00 0.00 76 1010.0
20260903014034 74 78 0.0 1.0 0.00 0.00 0.00 76 1009.9
20260903013535 75 72 0.0 1.0 0.00 0.00 0.00 74 1009.8
20260903013034 76 68 0.0 1.0 0.00 0.00 0.00 73 1009.8
20260903012535 77 69 0.0 1.0 0.00 0.00 0.00 70 1009.7
20260903012036 77 86 0.0 1.0 0.00 0.00 0.00 68 1009.7
20260903011538 77 95 0.0 1.0 0.00 0.00 0.00 68 1009.7